St. Inigoes, MD

11:59 PM EST on February 24, 2018 (GMT -0500)
Webster Naval Outlying Field

Weather History for KNUI - March, 2014

Change the Weather History Date:

Wednesday, March 26, 2014

  Actual Average (KNHK) Record (KNHK)
Temperature  
Mean Temperature 32 °F -  
Max Temperature 37 °F 57 °F 75 °F (2003)
Min Temperature 28 °F 38 °F 28 °F (2014)
Degree Days  
Heating Degree Days 32    
Moisture  
Dew Point 19 °F    
Average Humidity 61    
Maximum Humidity 88    
Minimum Humidity 33    
Precipitation  
Precipitation 0.00 in - - ()
Sea Level Pressure  
Sea Level Pressure 30.04 in    
Wind  
Wind Speed 11 mph (WNW)    
Max Wind Speed 25 mph    
Max Gust Speed 40 mph    
Averages and records for this station are not official NWS values.
T = Trace of Precipitation, MM = Missing Value Source: NWS Daily Summary

Daily Weather History Graph

Daily Weather History Graph

Search for Another Location

Airport or City:

Trip Planner

Search our weather history database for the weather conditions in past years. The results will help you decide how hot, cold, wet, or windy it might be!

Date:

Astronomy

Mar. 26, 2014 Rise Set
Actual Time 7:00 AM EDT 7:23 PM EDT
Civil Twilight 6:33 AM EDT 7:49 PM EDT
Nautical Twilight 6:02 AM EDT 8:20 PM EDT
Astronomical Twilight 5:31 AM EDT 8:52 PM EDT
Moon 4:03 AM EDT (3/26) 3:02 PM EDT (3/26)
Length of Visible Light 13h 16m
Length of Day
12h 23m
Waning Crescent, 22% of the Moon is Illuminated
Mar 26
Waning Crescent
Mar 30
New
Apr 7
First Quarter
Apr 15
Full
Apr 22
Last Quarter

Hourly Weather History & Observations

Time (EDT) Temp. Windchill Dew Point Humidity Pressure Visibility Wind Dir Wind Speed Gust Speed Precip Events Conditions
12:53 AM 32.0 °F 26.4 °F 28.9 °F 88% 29.86 in - NNW 5.8 mph - N/A   Overcast
1:53 AM 33.1 °F 28.7 °F 28.9 °F 85% 29.87 in - Variable 4.6 mph - N/A   Overcast
2:01 AM 33.1 °F 27.7 °F 28.9 °F 85% 29.87 in - Variable 5.8 mph - N/A   Overcast
2:20 AM 32.0 °F 25.6 °F 28.9 °F 88% 29.87 in - NW 6.9 mph - N/A   Mostly Cloudy
2:33 AM 32.0 °F 24.8 °F 28.0 °F 85% 29.87 in - NW 8.1 mph - N/A   Mostly Cloudy
2:53 AM 32.0 °F 25.6 °F 28.0 °F 85% 29.87 in - Variable 6.9 mph - N/A   Scattered Clouds
3:22 AM 32.0 °F 23.6 °F 28.9 °F 88% 29.88 in - WNW 10.4 mph - N/A   Mostly Cloudy
3:45 AM 32.0 °F 24.2 °F 28.0 °F 85% 29.88 in - WNW 9.2 mph 17.3 mph N/A   Scattered Clouds
3:53 AM 32.0 °F 24.8 °F 28.0 °F 85% 29.88 in - NW 8.1 mph - N/A   Mostly Cloudy
4:53 AM 32.0 °F 25.6 °F 27.0 °F 82% 29.89 in - NW 6.9 mph 18.4 mph N/A   Mostly Cloudy
5:14 AM 30.9 °F 23.5 °F 26.1 °F 82% 29.90 in - WNW 8.1 mph 17.3 mph N/A   Scattered Clouds
5:53 AM 30.9 °F 19.8 °F 24.1 °F 76% 29.92 in - NW 16.1 mph 25.3 mph N/A   Clear
6:53 AM 30.0 °F 19.5 °F 19.9 °F 66% 29.95 in - WNW 13.8 mph 27.6 mph N/A   Clear
7:53 AM 28.9 °F 17.3 °F 18.0 °F 64% 30.01 in - WNW 16.1 mph 26.5 mph N/A   Clear
8:53 AM 30.0 °F 18.7 °F 19.0 °F 64% 30.03 in - WNW 16.1 mph 29.9 mph N/A   Clear
9:53 AM 32.0 °F 21.2 °F 18.0 °F 56% 30.07 in - WNW 16.1 mph 28.8 mph N/A   Clear
10:53 AM 33.1 °F 20.1 °F 17.1 °F 52% 30.09 in - WNW 25.3 mph 36.8 mph N/A   Scattered Clouds
11:53 AM 34.0 °F 21.8 °F 17.1 °F 50% 30.11 in - WNW 23.0 mph 40.3 mph N/A   Scattered Clouds
12:53 PM 34.0 °F 21.5 °F 14.0 °F 44% 30.12 in - WNW 24.2 mph 39.1 mph N/A   Mostly Cloudy
1:53 PM 36.0 °F 24.2 °F 17.1 °F 46% 30.12 in - West 24.2 mph 34.5 mph N/A   Mostly Cloudy
2:53 PM 36.0 °F 24.4 °F 12.0 °F 37% 30.12 in - WNW 23.0 mph 33.4 mph N/A   Partly Cloudy
3:53 PM 37.0 °F 27.0 °F 10.9 °F 34% 30.13 in - West 18.4 mph 32.2 mph N/A   Clear
4:53 PM 37.0 °F 27.7 °F 10.0 °F 33% 30.14 in - WNW 16.1 mph 25.3 mph N/A   Clear
5:53 PM 36.0 °F 25.0 °F 10.0 °F 34% 30.18 in - West 20.7 mph 31.1 mph N/A   Clear
6:53 PM 35.1 °F 24.5 °F 9.0 °F 34% 30.20 in - WNW 18.4 mph 26.5 mph N/A   Clear
7:53 PM 34.0 °F 23.8 °F 9.0 °F 35% 30.23 in - WNW 16.1 mph 23.0 mph N/A   Clear
8:53 PM 34.0 °F 26.6 °F 10.9 °F 38% 30.26 in - WNW 9.2 mph 19.6 mph N/A   Clear
9:53 PM 33.1 °F 26.1 °F 10.0 °F 38% 30.29 in - NW 8.1 mph - N/A   Clear
10:53 PM 32.0 °F 27.5 °F 9.0 °F 38% 30.30 in - NNW 4.6 mph - N/A   Clear
11:53 PM 30.9 °F - 10.0 °F 42% 30.34 in - Calm Calm - N/A   Clear